STARLINK-1730

Last updated on Fri Nov 06 2020 00:02:03 GMT+0000 (Coordinated Universal Time)

1 46563U 20070AH 20310.58343750 -.00004730 00000-0 -45799-4 0 9998 2 46563 53.0025 294.1419 0000990 71.4876 68.0540 15.62780376 1775
UTC large
Height (km)
Speed (km/s)
/
Latitude / Longitude
Inclination (degrees)
Orbital Period (minutes)
Azimuth
Elevation
Range (km)
Doppler Factor

Next 0 passes for location: London (51.5072 / 0.1276)

Sorry there are no passes over London.